Flag for U.S.A. Weather past 2 weeks in Winston-Salem, North Carolina, U.S.A.

Now
79 °F

Passing clouds.


Feels Like: 81 °F
Forecast: 72 / 85 °F
Wind: 7 mph from North

Location: Smith Reynolds Airport

Current Time: Aug 23, 2014 at 9:32:30 AM

Latest Report: Aug 23, 2014 at 8:54 AM


Visibility: 10 mi

Pressure: 29.96 "Hg

Humidity: 69%

Dew point: 68 °F

Location of Winston-SalemLocation

Historic Weather in Winston-Salem — Graph

°F

Winston-Salem temperature yesterday

Maximum temperature yesterday: 88 °F (at 11:54 AM)
Minimum temperature yesterday: 71 °F (at 3:54 AM)
Average temperature yesterday: 81 °F

Past Weeks' High & Low Weather Summary

 TemperatureHumidityPressure
High88 °F (Aug 21, 1:54 PM)97% (Aug 9, 11:54 AM)30.17 "Hg (Aug 9, 11:54 AM)
Low58 °F (Aug 14, 5:54 AM)39% (Aug 16, 4:54 PM)29.78 "Hg (Aug 12, 5:54 PM)
Average74 °F75%29.99 "Hg
* Reported Aug 8 7:54 AM — Aug 23 7:54 AM, Winston-Salem, Weather by CustomWeather, © 2014

Note: Actual official high and low records may vary slightly from our data, if they occured in-between our weather recording intervals... More about our weather records

Advertising

Winston-Salem weather history for previous 24 hours

 ConditionsComfort  
Time TempWeatherWind HumidityBarometerVisibility
7:54 AM
Aug 23
75 °FOvercast.5 mph82%29.95 "Hg10 mi
6:54 AM72 °FClear.No wind87%29.94 "Hg10 mi
5:54 AM73 °FClear.3 mph84%29.93 "Hg10 mi
4:54 AM75 °FClear.No wind79%29.92 "Hg10 mi
3:54 AM75 °FPassing clouds.5 mph79%29.94 "Hg10 mi
2:54 AM76 °FPassing clouds.3 mph77%29.93 "Hg10 mi
1:54 AM77 °FPassing clouds.5 mph77%29.95 "Hg10 mi
12:54 AM78 °FOvercast.5 mph76%29.97 "Hg10 mi
11:54 PM
Aug 22
79 °FPassing clouds.5 mph79%29.97 "Hg10 mi
10:54 PM80 °FPassing clouds.6 mph76%29.97 "Hg10 mi
9:54 PM83 °FPassing clouds.5 mph65%29.97 "Hg10 mi
8:54 PM80 °FSunny.No wind71%29.96 "Hg10 mi
7:54 PM85 °FSunny.3 mph57%29.95 "Hg10 mi
6:54 PM86 °FSunny.3 mph55%29.95 "Hg10 mi
5:54 PM86 °FSunny.6 mph55%29.96 "Hg10 mi
4:54 PM87 °FSunny.8 mph53%29.97 "Hg10 mi
3:54 PM86 °FSunny.7 mph57%29.98 "Hg10 mi
2:54 PM88 °FSunny.13 mph50%30.00 "Hg10 mi
1:54 PM87 °FPassing clouds.7 mph57%30.01 "Hg10 mi
12:54 PM87 °FSunny.5 mph55%30.02 "Hg10 mi
11:54 AM88 °FSunny.10 mph52%30.02 "Hg10 mi
10:54 AM85 °FSunny.5 mph55%30.03 "Hg10 mi
9:54 AM83 °FSunny.3 mph61%30.03 "Hg10 mi
Weather by CustomWeather, © 2014

See weather overviewHow to use our weather pages